Weather Roundup
Issued by NWS Chicago, IL

Home | Current Version | Previous Version | Graphics & Text | Print | Product List | Glossary On
Versions: 1 2 3 4 5 6 7 8 9 10 11 12 13 14 15 16 17 18 19 20 21 22 23 24 25 26 27 28 29 30 31 32 33 34 35 36 37 38 39 40 41 42 43 44 45 46 47 48 49 50
298
NZUS59 KLOT 081408
HRRLOT

CHICAGO AREA WEATHER ROUNDUP
NATIONAL WEATHER SERVICE CHICAGO/ROMEOVILLE IL
800 AM CST THU DEC 08 2016

NOTE: "FAIR" INDICATES FEW OR NO CLOUDS BELOW 12,000 FEET WITH NO
SIGNIFICANT WEATHER AND/OR OBSTRUCTIONS TO VISIBILITY.

* THESE STATIONS ARE NOT UNDER NWS QUALITY CONTROL. THEY ALSO MAY NOT
  REPORT WEATHER SUCH AS PRECIPITATION OR FOG.

ILZ005-006-012>014-019>023-081500-
NORTHEAST ILLINOIS

CITY           SKY/WX    TMP DP  RH WIND       PRES   REMARKS
OHARE          CLOUDY    17   8  67 W18G28    30.22R WCI   1
MIDWAY         FLURRIES  18   8  65 W20G29    30.24R WCI   2
AURORA         CLOUDY    17  10  74 W24G35    30.26R WCI  -1
LANSING*       CLOUDY    19  13  79 W16G26    30.24R WCI   4
JOLIET*        CLOUDY    19  12  73 W12G23    30.29R WCI   7
WAUKEGAN       CLOUDY    17   9  70 W9G17     30.19R WCI   6
DUPAGE AIRPORT CLOUDY    16   8  71 W16G28    30.24R WCI   1
WHEELING       LGT SNOW  17   9  70 W17G26    30.23R WCI   1
KANKAKEE*      FLURRIES  20  13  72 W23G29    30.28R WCI   4
MORRIS*        LGT SNOW  19  13  77 W24G31    30.28R WCI   1
LEWIS AIRPORT* CLOUDY    17  13  84 W24G32    30.26R WCI  -1
NORTHERLY ISL    N/A     20  11  68 W10         N/A  WCI   9
$$

WIZ051-052-058>065-066-070>072-081500-
SOUTHEAST WISCONSIN

CITY           SKY/WX    TMP DP  RH WIND       PRES   REMARKS
MILWAUKEE      MOCLDY    19   8  62 W17G28    30.16R WCI   4
KENOSHA*       CLOUDY    17   9  70 W18       30.18R WCI   1
RACINE*        CLOUDY    19   8  62 W12G25    30.18R WCI   7
BURLINGTON     FLURRIES  20  15  78 W14G20    30.19R WCI   7
WAUKESHA       MOCLDY    16   9  73 W17G25    30.15R WCI   0
WEST BEND      FLURRIES  18  12  79 W13G22    30.12R WCI   4
$$

INZ001>003-010>013-019-020-081500-
NORTHWEST INDIANA

CITY           SKY/WX    TMP DP  RH WIND       PRES   REMARKS
GARY*          NOT AVBL
MICHIGAN CITY* NOT AVBL
RENSSELAER*    NOT AVBL
VALPARAISO     CLOUDY    20  12  71 W18G30    30.22R WCI   5
$$

LMZ740>746-081500-
SOUTHERN LAKE MICHIGAN

STATION/POSITION TIME  SKY/WX   TEMP WIND        PRES    VSBY
                                AIR  DIR/SP/G
                 (UTC)          (F)  (DEG/KT/KT) (MB)    (MI)
HARRISON CRIB    1340            21  260/ 26/ 30   N/A
BURNHAM HARBOR   1400            18  230/ 13/ 19   N/A
CALUMET HARBOR   1342            19  240/ 13/ 21 1022.6R
BURNS HARBOR     1340            23  250/ 22/ 28 1023.4R
MICHIGAN CITY    1340            22  240/ 30/ 32   N/A
$$

ABBREVIATIONS USED IN REMARKS
   TC - TEMPERATURE IN CELSIUS
  WCI - WIND CHILL INDEX
   HX - HEAT INDEX
  VSB - VISIBILITY
$$




USA.gov is the U.S. government's official web portal to all federal, state and local government web resources and services.